Time,TemperatureF,DewpointF,PressureIn,WindDirection,WindDirectionDegrees,WindSpeedMPH,WindSpeedGustMPH,Humidity,HourlyPrecipIn,Conditions,Clouds,dailyrainin,SolarRadiationWatts/m^2,SoftwareType,DateUTC
2013-07-06 00:12:00,56.0,44.0,-100.00,WSW,252,9.0,11.0,64,0.00,,,0.14,0.000000,,2013-07-06 06:12:00,
2013-07-06 00:22:00,56.0,44.0,-100.00,WSW,252,9.0,11.0,64,0.00,,,0.14,0.000000,,2013-07-06 06:22:00,
2013-07-06 00:34:00,56.0,44.0,-100.00,WSW,252,9.0,11.0,64,0.00,,,0.14,0.000000,,2013-07-06 06:34:00,
2013-07-06 00:43:00,56.0,44.0,-100.00,WSW,252,9.0,11.0,64,0.00,,,0.14,0.000000,,2013-07-06 06:43:00,
2013-07-06 00:53:00,56.0,44.0,-100.00,WSW,252,9.0,11.0,64,0.00,,,0.14,0.000000,,2013-07-06 06:53:00,
2013-07-06 01:12:00,57.0,44.0,-100.00,West,276,7.0,13.0,62,0.00,,,0.14,0.000000,,2013-07-06 07:12:00,
2013-07-06 01:22:00,57.0,44.0,-100.00,West,276,7.0,13.0,62,0.00,,,0.14,0.000000,,2013-07-06 07:22:00,
2013-07-06 01:33:00,57.0,44.0,-100.00,West,276,7.0,13.0,62,0.00,,,0.14,0.000000,,2013-07-06 07:33:00,
2013-07-06 01:43:00,57.0,44.0,-100.00,West,276,7.0,13.0,62,0.00,,,0.14,0.000000,,2013-07-06 07:43:00,
2013-07-06 01:52:00,57.0,44.0,-100.00,West,276,7.0,13.0,62,0.00,,,0.14,0.000000,,2013-07-06 07:52:00,
2013-07-06 01:54:00,59.0,38.0,-100.00,NW,319,13.0,13.0,45,0.00,,,0.14,0.000000,,2013-07-06 07:54:00,
2013-07-06 02:21:00,59.0,38.0,-100.00,NW,319,13.0,13.0,45,0.00,,,0.14,0.000000,,2013-07-06 08:21:00,
2013-07-06 02:33:00,59.0,38.0,-100.00,NW,319,13.0,13.0,45,0.00,,,0.14,0.000000,,2013-07-06 08:33:00,
2013-07-06 02:43:00,59.0,38.0,-100.00,NW,319,13.0,13.0,45,0.00,,,0.14,0.000000,,2013-07-06 08:43:00,
2013-07-06 03:22:00,57.0,34.0,-100.00,NW,312,16.0,24.0,42,0.00,,,0.14,0.000000,,2013-07-06 09:22:00,
2013-07-06 03:33:00,57.0,34.0,-100.00,NW,312,16.0,24.0,42,0.00,,,0.14,0.000000,,2013-07-06 09:33:00,
2013-07-06 03:43:00,57.0,34.0,-100.00,NW,312,16.0,24.0,42,0.00,,,0.14,0.000000,,2013-07-06 09:43:00,
2013-07-06 03:52:00,57.0,34.0,-100.00,NW,312,16.0,24.0,42,0.00,,,0.14,0.000000,,2013-07-06 09:52:00,
2013-07-06 04:11:00,56.0,34.0,-100.00,NW,311,16.0,23.0,43,0.00,,,0.14,0.000000,,2013-07-06 10:11:00,
2013-07-06 04:22:00,56.0,34.0,-100.00,NW,311,16.0,23.0,43,0.00,,,0.14,0.000000,,2013-07-06 10:22:00,
2013-07-06 04:33:00,56.0,34.0,-100.00,NW,311,16.0,23.0,43,0.00,,,0.14,0.000000,,2013-07-06 10:33:00,
2013-07-06 04:42:00,56.0,34.0,-100.00,NW,311,16.0,23.0,43,0.00,,,0.14,0.000000,,2013-07-06 10:42:00,
2013-07-06 04:53:00,56.0,34.0,-100.00,NW,311,16.0,23.0,43,0.00,,,0.14,0.000000,,2013-07-06 10:53:00,
2013-07-06 05:11:00,54.0,40.0,-100.00,SE,143,2.0,23.0,60,0.00,,,0.14,0.000000,,2013-07-06 11:11:00,
2013-07-06 05:22:00,54.0,40.0,-100.00,SE,143,2.0,23.0,60,0.00,,,0.14,0.000000,,2013-07-06 11:22:00,
2013-07-06 05:33:00,54.0,40.0,-100.00,SE,143,2.0,23.0,60,0.00,,,0.14,0.000000,,2013-07-06 11:33:00,
2013-07-06 05:42:00,54.0,40.0,-100.00,SE,143,2.0,23.0,60,0.00,,,0.14,0.000000,,2013-07-06 11:42:00,
2013-07-06 05:52:00,54.0,40.0,-100.00,SE,143,2.0,23.0,60,0.00,,,0.14,0.000000,,2013-07-06 11:52:00,
2013-07-06 06:11:00,51.0,44.0,-100.00,NNE,17,1.0,15.0,78,0.00,,,0.14,2.000000,,2013-07-06 12:11:00,
2013-07-06 06:22:00,51.0,44.0,-100.00,NNE,17,1.0,15.0,78,0.00,,,0.14,2.000000,,2013-07-06 12:22:00,
2013-07-06 06:33:00,51.0,44.0,-100.00,NNE,17,1.0,15.0,78,0.00,,,0.14,2.000000,,2013-07-06 12:33:00,
2013-07-06 06:43:00,51.0,44.0,-100.00,NNE,17,1.0,15.0,78,0.00,,,0.14,2.000000,,2013-07-06 12:43:00,
2013-07-06 06:52:00,51.0,44.0,-100.00,NNE,17,1.0,15.0,78,0.00,,,0.14,2.000000,,2013-07-06 12:52:00,
2013-07-06 07:22:00,55.0,38.0,-100.00,NW,305,10.0,10.0,52,0.00,,,-99.99,86.000000,,2013-07-06 13:22:00,
2013-07-06 07:33:00,55.0,38.0,-100.00,NW,305,10.0,10.0,52,0.00,,,-99.99,86.000000,,2013-07-06 13:33:00,
2013-07-06 07:43:00,55.0,38.0,-100.00,NW,305,10.0,10.0,52,0.00,,,-99.99,86.000000,,2013-07-06 13:43:00,
2013-07-06 07:52:00,55.0,38.0,-100.00,NW,305,10.0,10.0,52,0.00,,,-99.99,86.000000,,2013-07-06 13:52:00,
2013-07-06 08:42:00,57.0,38.0,-100.00,WNW,296,10.0,16.0,48,0.00,,,0.14,314.000000,,2013-07-06 14:42:00,
2013-07-06 08:53:00,57.0,38.0,-100.00,WNW,296,10.0,16.0,48,0.00,,,0.14,314.000000,,2013-07-06 14:53:00,
2013-07-06 09:22:00,63.0,45.0,-100.00,NNE,15,4.0,14.0,52,0.00,,,0.14,585.000000,,2013-07-06 15:22:00,
2013-07-06 09:33:00,63.0,45.0,-100.00,NNE,15,4.0,14.0,52,0.00,,,0.14,585.000000,,2013-07-06 15:33:00,
2013-07-06 09:43:00,63.0,45.0,-100.00,NNE,15,4.0,14.0,52,0.00,,,0.14,585.000000,,2013-07-06 15:43:00,
2013-07-06 09:52:00,63.0,45.0,-100.00,NNE,15,4.0,14.0,52,0.00,,,0.14,585.000000,,2013-07-06 15:52:00,
2013-07-06 09:54:00,61.0,47.0,-100.00,SSE,151,7.0,12.0,60,0.00,,,0.14,847.000000,,2013-07-06 15:54:00,
2013-07-06 10:14:00,61.0,47.0,-100.00,SSE,151,7.0,12.0,60,0.00,,,0.14,847.000000,,2013-07-06 16:14:00,
2013-07-06 10:23:00,61.0,47.0,-100.00,SSE,151,7.0,12.0,60,0.00,,,0.14,847.000000,,2013-07-06 16:23:00,
2013-07-06 10:37:00,61.0,47.0,-100.00,SSE,151,7.0,12.0,60,0.00,,,0.14,847.000000,,2013-07-06 16:37:00,
2013-07-06 11:18:00,64.0,45.0,-100.00,SE,137,6.0,12.0,50,0.00,,,0.14,1070.000000,,2013-07-06 17:18:00,
2013-07-06 11:27:00,64.0,45.0,-100.00,SE,137,6.0,12.0,50,0.00,,,0.14,1070.000000,,2013-07-06 17:27:00,
2013-07-06 11:45:00,64.0,45.0,-100.00,SE,137,6.0,12.0,50,0.00,,,0.14,1070.000000,,2013-07-06 17:45:00,
2013-07-06 12:18:00,65.0,48.0,-100.00,ESE,103,5.0,12.0,55,0.00,,,0.14,1018.000000,,2013-07-06 18:18:00,
2013-07-06 12:37:00,65.0,48.0,-100.00,ESE,103,5.0,12.0,55,0.00,,,0.14,1018.000000,,2013-07-06 18:37:00,
2013-07-06 12:46:00,65.0,48.0,-100.00,ESE,103,5.0,12.0,55,0.00,,,0.14,1018.000000,,2013-07-06 18:46:00,
2013-07-06 12:54:00,66.0,47.0,-100.00,WNW,291,6.0,13.0,51,0.00,,,0.14,1060.000000,,2013-07-06 18:54:00,
2013-07-06 13:27:00,66.0,47.0,-100.00,WNW,291,6.0,13.0,51,0.00,,,0.14,1060.000000,,2013-07-06 19:27:00,
2013-07-06 13:46:00,66.0,47.0,-100.00,WNW,291,6.0,13.0,51,0.00,,,0.14,1060.000000,,2013-07-06 19:46:00,
2013-07-06 13:54:00,69.0,45.0,-100.00,SW,216,3.0,14.0,42,0.00,,,0.14,1413.000000,,2013-07-06 19:54:00,
2013-07-06 14:18:00,69.0,45.0,-100.00,SW,216,3.0,14.0,42,0.00,,,0.14,1413.000000,,2013-07-06 20:18:00,
2013-07-06 14:27:00,69.0,45.0,-100.00,SW,216,3.0,14.0,42,0.00,,,0.14,1413.000000,,2013-07-06 20:27:00,
2013-07-06 14:47:00,69.0,45.0,-100.00,SW,216,3.0,14.0,42,0.00,,,0.14,1413.000000,,2013-07-06 20:47:00,
2013-07-06 15:15:00,70.0,44.0,-100.00,East,79,7.0,17.0,39,0.00,,,0.14,1356.000000,,2013-07-06 21:15:00,
2013-07-06 15:54:00,72.0,44.0,-100.00,East,81,10.0,14.0,36,0.00,,,0.14,1329.000000,,2013-07-06 21:54:00,
2013-07-06 16:46:00,72.0,44.0,-100.00,East,81,10.0,14.0,36,0.00,,,0.14,1329.000000,,2013-07-06 22:46:00,
2013-07-06 17:27:00,71.0,42.0,-100.00,ENE,58,8.0,16.0,35,0.00,,,0.14,1048.000000,,2013-07-06 23:27:00,
2013-07-06 17:54:00,71.0,39.0,-100.00,NE,37,12.0,16.0,31,0.00,,,0.10,621.000000,,2013-07-06 23:54:00,
2013-07-06 18:26:00,71.0,39.0,-100.00,NE,37,12.0,16.0,31,0.00,,,0.10,621.000000,,2013-07-07 00:26:00,
2013-07-06 19:17:00,73.0,37.0,-100.00,NE,34,7.0,18.0,27,0.00,,,0.00,654.000000,,2013-07-07 01:17:00,
2013-07-06 19:26:00,73.0,37.0,-100.00,NE,34,7.0,18.0,27,0.00,,,0.00,654.000000,,2013-07-07 01:26:00,
2013-07-06 19:36:00,73.0,37.0,-100.00,NE,34,7.0,18.0,27,0.00,,,0.00,654.000000,,2013-07-07 01:36:00,
2013-07-06 19:45:00,73.0,37.0,-100.00,NE,34,7.0,18.0,27,0.00,,,0.00,654.000000,,2013-07-07 01:45:00,
2013-07-06 19:53:00,73.0,37.0,-100.00,NE,34,7.0,18.0,27,0.00,,,0.00,654.000000,,2013-07-07 01:53:00,
2013-07-06 20:17:00,71.0,40.0,-100.00,NNE,26,6.0,15.0,32,0.00,,,0.00,228.000000,,2013-07-07 02:17:00,
2013-07-06 20:26:00,71.0,40.0,-100.00,NNE,26,6.0,15.0,32,0.00,,,0.00,228.000000,,2013-07-07 02:26:00,
2013-07-06 20:34:00,71.0,40.0,-100.00,NNE,26,6.0,15.0,32,0.00,,,0.00,228.000000,,2013-07-07 02:34:00,
2013-07-06 21:16:00,66.0,42.0,-100.00,WSW,237,1.0,13.0,42,0.00,,,0.00,90.000000,,2013-07-07 03:16:00,
2013-07-06 21:25:00,66.0,42.0,-100.00,WSW,237,1.0,13.0,42,0.00,,,0.00,90.000000,,2013-07-07 03:25:00,
2013-07-06 21:33:00,66.0,42.0,-100.00,WSW,237,1.0,13.0,42,0.00,,,0.00,90.000000,,2013-07-07 03:33:00,
2013-07-06 21:52:00,66.0,42.0,-100.00,WSW,237,1.0,13.0,42,0.00,,,0.00,90.000000,,2013-07-07 03:52:00,
2013-07-06 22:11:00,64.0,48.0,-100.00,NE,45,9.0,13.0,56,0.00,,,0.00,7.000000,,2013-07-07 04:11:00,
2013-07-06 22:21:00,64.0,48.0,-100.00,NE,45,9.0,13.0,56,0.00,,,0.00,7.000000,,2013-07-07 04:21:00,
2013-07-06 22:31:00,64.0,48.0,-100.00,NE,45,9.0,13.0,56,0.00,,,0.00,7.000000,,2013-07-07 04:31:00,
2013-07-06 22:41:00,64.0,48.0,-100.00,NE,45,9.0,13.0,56,0.00,,,0.00,7.000000,,2013-07-07 04:41:00,
2013-07-06 22:51:00,64.0,48.0,-100.00,NE,45,9.0,13.0,56,0.00,,,0.00,7.000000,,2013-07-07 04:51:00,
2013-07-06 23:11:00,59.0,46.0,-100.00,NNE,30,10.0,19.0,61,0.00,,,0.00,0.000000,,2013-07-07 05:11:00,
2013-07-06 23:21:00,59.0,46.0,-100.00,NNE,30,10.0,19.0,61,0.00,,,0.00,0.000000,,2013-07-07 05:21:00,
2013-07-06 23:31:00,59.0,46.0,-100.00,NNE,30,10.0,19.0,61,0.00,,,0.00,0.000000,,2013-07-07 05:31:00,
2013-07-06 23:41:00,59.0,46.0,-100.00,NNE,30,10.0,19.0,61,0.00,,,0.00,0.000000,,2013-07-07 05:41:00,
2013-07-06 23:51:00,59.0,46.0,-100.00,NNE,30,10.0,19.0,61,0.00,,,0.00,0.000000,,2013-07-07 05:51:00,